• In Netherlands
  • List of Countries
  • For 7 days
  • Water Temperature
  • Satellite Maps
  • Weather Map
  • Weather Widgets
  • user-avatar
    Login

    Hourly Weather Malanje

    Today, 26 July, Wednesday

    Time Temperature Precipitation Wind Pressure Humidity
    00:00 +21°C° 0 mm 1 mps 666 mmHg 54%
    01:00 +19°C° 0 mm 2 mps 666 mmHg 63%
    02:00 +19°C° 0 mm 2 mps 666 mmHg 69%
    03:00 +19°C° 0 mm 1 mps 666 mmHg 76%
    04:00 +18°C° 0 mm 1 mps 665 mmHg 82%
    05:00 +18°C° 0 mm 1 mps 666 mmHg 82%
    06:00 +18°C° 0 mm 1 mps 666 mmHg 82%
    07:00 +19°C° 0 mm 1 mps 667 mmHg 76%
    08:00 +22°C° 0 mm 1 mps 668 mmHg 60%
    09:00 +26°C° 0 mm 1 mps 669 mmHg 44%
    10:00 +29°C° 0 mm 1 mps 669 mmHg 28%
    11:00 +31°C° 0 mm 1 mps 669 mmHg 23%
    12:00 +33°C° 0 mm 1 mps 669 mmHg 18%
    13:00 +35°C° 0 mm 1 mps 669 mmHg 13%
    14:00 +35°C° 0 mm 1 mps 668 mmHg 12%
    15:00 +34°C° 0 mm 1 mps 667 mmHg 12%
    16:00 +34°C° 0 mm 1 mps 667 mmHg 12%
    17:00 +32°C° 0 mm 1 mps 666 mmHg 14%
    18:00 +29°C° 0 mm 1 mps 666 mmHg 15%
    19:00 +27°C° 0 mm 1 mps 666 mmHg 17%
    20:00 +26°C° 0 mm 1 mps 666 mmHg 19%
    21:00 +25°C° 0 mm 1 mps 666 mmHg 20%
    22:00 +22°C° 0 mm 0 mps 667 mmHg 22%
    23:00 +23°C° 0 mm 1 mps 666 mmHg 27%

    Tomorrow, 27 July, Thursday

    Time Temperature Precipitation Wind Pressure Humidity
    00:00 +22°C° 0 mm 1 mps 666 mmHg 32%
    01:00 +21°C° 0 mm 2 mps 666 mmHg 37%
    02:00 +21°C° 0 mm 1 mps 666 mmHg 45%
    03:00 +20°C° 0 mm 1 mps 665 mmHg 52%
    04:00 +19°C° 0 mm 1 mps 665 mmHg 59%
    05:00 +19°C° 0 mm 1 mps 665 mmHg 59%
    06:00 +19°C° 0 mm 1 mps 666 mmHg 59%
    07:00 +19°C° 0 mm 1 mps 666 mmHg 58%
    08:00 +23°C° 0 mm 1 mps 667 mmHg 46%
    09:00 +27°C° 0 mm 1 mps 668 mmHg 33%
    10:00 +30°C° 0 mm 1 mps 669 mmHg 20%
    11:00 +32°C° 0 mm 1 mps 669 mmHg 16%
    12:00 +35°C° 0 mm 2 mps 669 mmHg 13%
    13:00 +36°C° 0 mm 2 mps 668 mmHg 10%
    14:00 +35°C° 0 mm 1 mps 668 mmHg 10%
    15:00 +35°C° 0 mm 1 mps 667 mmHg 10%
    16:00 +35°C° 0 mm 1 mps 666 mmHg 9%
    17:00 +32°C° 0 mm 1 mps 666 mmHg 11%
    18:00 +30°C° 0 mm 1 mps 666 mmHg 13%
    19:00 +27°C° 0 mm 1 mps 666 mmHg 15%
    20:00 +26°C° 0 mm 1 mps 666 mmHg 17%
    21:00 +25°C° 0 mm 1 mps 666 mmHg 20%
    22:00 +25°C° 0 mm 1 mps 667 mmHg 22%
    23:00 +24°C° 0 mm 1 mps 666 mmHg 27%

    Day after tomorrow, 28 July, Friday

    Time Temperature Precipitation Wind Pressure Humidity
    00:00 +23°C° 0 mm 1 mps 666 mmHg 32%
    01:00 +22°C° 0 mm 1 mps 666 mmHg 37%
    02:00 +21°C° 0 mm 1 mps 665 mmHg 42%
    03:00 +21°C° 0 mm 1 mps 665 mmHg 47%
    04:00 +20°C° 0 mm 1 mps 665 mmHg 52%
    05:00 +20°C° 0 mm 1 mps 665 mmHg 49%
    06:00 +20°C° 0 mm 1 mps 666 mmHg 47%
    07:00 +20°C° 0 mm 1 mps 666 mmHg 44%
    08:00 +24°C° 0 mm 1 mps 667 mmHg 34%
    09:00 +27°C° 0 mm 2 mps 668 mmHg 24%
    10:00 +31°C° 0 mm 2 mps 669 mmHg 14%
    11:00 +32°C° 0 mm 2 mps 669 mmHg 13%
    12:00 +35°C° 0 mm 2 mps 668 mmHg 12%
    13:00 +37°C° 0 mm 3 mps 667 mmHg 11%
    14:00 +37°C° 0 mm 2 mps 667 mmHg 10%
    15:00 +36°C° 0 mm 2 mps 666 mmHg 10%
    16:00 +36°C° 0 mm 2 mps 666 mmHg 10%
    17:00 +34°C° 0 mm 2 mps 666 mmHg 12%
    18:00 +31°C° 0 mm 1 mps 666 mmHg 14%
    19:00 +28°C° 0 mm 1 mps 666 mmHg 15%
    20:00 +27°C° 0 mm 1 mps 666 mmHg 18%
    21:00 +26°C° 0 mm 1 mps 666 mmHg 21%
    22:00 +25°C° 0 mm 1 mps 667 mmHg 24%
    23:00 +24°C° 0 mm 1 mps 666 mmHg 31%

    29 July, Saturday

    Time Temperature Precipitation Wind Pressure Humidity
    00:00 +23°C° 0 mm 1 mps 666 mmHg 39%
    01:00 +22°C° 0 mm 1 mps 665 mmHg 46%
    02:00 +21°C° 0 mm 1 mps 665 mmHg 49%
    03:00 +21°C° 0 mm 1 mps 665 mmHg 52%
    04:00 +20°C° 0 mm 1 mps 665 mmHg 56%
    05:00 +20°C° 0 mm 1 mps 666 mmHg 52%
    06:00 +20°C° 0 mm 1 mps 666 mmHg 48%
    07:00 +20°C° 0 mm 1 mps 667 mmHg 45%
    08:00 +23°C° 0 mm 2 mps 667 mmHg 35%
    09:00 +27°C° 0 mm 2 mps 668 mmHg 25%
    10:00 +30°C° 0 mm 3 mps 669 mmHg 15%
    11:00 +31°C° 0 mm 3 mps 668 mmHg 14%
    12:00 +34°C° 0 mm 3 mps 668 mmHg 12%
    13:00 +36°C° 0 mm 3 mps 667 mmHg 11%
    14:00 +36°C° 0 mm 2 mps 667 mmHg 11%
    15:00 +36°C° 0 mm 2 mps 666 mmHg 11%
    16:00 +36°C° 0 mm 2 mps 666 mmHg 11%
    17:00 +33°C° 0 mm 1 mps 666 mmHg 13%
    18:00 +30°C° 0 mm 1 mps 666 mmHg 14%
    19:00 +28°C° 0 mm 1 mps 666 mmHg 16%
    20:00 +27°C° 0 mm 1 mps 666 mmHg 20%
    21:00 +26°C° 0 mm 1 mps 666 mmHg 24%
    22:00 +25°C° 0 mm 1 mps 667 mmHg 27%
    23:00 +24°C° 0 mm 1 mps 666 mmHg 37%

    30 July, Sunday

    Time Temperature Precipitation Wind Pressure Humidity
    00:00 +21°C° 0 mm 2 mps 666 mmHg 46%
    01:00 +20°C° 0 mm 2 mps 665 mmHg 56%
    02:00 +20°C° 0 mm 1 mps 665 mmHg 58%
    03:00 +20°C° 0 mm 1 mps 665 mmHg 60%
    04:00 +19°C° 0 mm 1 mps 665 mmHg 62%
    05:00 +19°C° 0 mm 1 mps 666 mmHg 57%
    06:00 +20°C° 0 mm 1 mps 666 mmHg 51%
    07:00 +20°C° 0 mm 1 mps 667 mmHg 46%
    08:00 +23°C° 0 mm 2 mps 667 mmHg 36%
    09:00 +26°C° 0 mm 3 mps 668 mmHg 26%
    10:00 +29°C° 0 mm 3 mps 669 mmHg 16%
    11:00 +31°C° 0 mm 3 mps 668 mmHg 14%
    12:00 +34°C° 0 mm 3 mps 668 mmHg 13%
    13:00 +36°C° 0 mm 2 mps 667 mmHg 11%
    14:00 +36°C° 0 mm 2 mps 667 mmHg 11%
    15:00 +36°C° 0 mm 2 mps 666 mmHg 11%
    16:00 +35°C° 0 mm 1 mps 666 mmHg 11%
    17:00 +32°C° 0 mm 1 mps 665 mmHg 13%
    18:00 +30°C° 0 mm 1 mps 665 mmHg 15%
    19:00 +28°C° 0 mm 1 mps 665 mmHg 17%
    20:00 +27°C° 0 mm 1 mps 666 mmHg 18%
    21:00 +26°C° 0 mm 1 mps 666 mmHg 20%
    22:00 +25°C° 0 mm 1 mps 666 mmHg 22%
    23:00 +24°C° 0 mm 1 mps 666 mmHg 31%

    31 July, Monday

    Time Temperature Precipitation Wind Pressure Humidity
    00:00 +23°C° 0 mm 2 mps 665 mmHg 41%
    01:00 +20°C° 0 mm 2 mps 665 mmHg 51%
    02:00 +20°C° 0 mm 2 mps 665 mmHg 57%
    03:00 +20°C° 0 mm 1 mps 665 mmHg 64%
    04:00 +19°C° 0 mm 1 mps 665 mmHg 71%
    05:00 +19°C° 0 mm 1 mps 665 mmHg 71%
    06:00 +19°C° 0 mm 1 mps 666 mmHg 71%
    07:00 +19°C° 0 mm 1 mps 666 mmHg 72%
    08:00 +23°C° 0 mm 1 mps 667 mmHg 55%
    09:00 +26°C° 0 mm 2 mps 668 mmHg 38%
    10:00 +30°C° 0 mm 2 mps 669 mmHg 22%
    11:00 +32°C° 0 mm 2 mps 668 mmHg 18%
    12:00 +35°C° 0 mm 2 mps 668 mmHg 15%
    13:00 +37°C° 0 mm 2 mps 667 mmHg 12%
    14:00 +37°C° 0 mm 2 mps 667 mmHg 12%
    15:00 +37°C° 0 mm 2 mps 666 mmHg 12%
    16:00 +36°C° 0 mm 1 mps 666 mmHg 11%
    17:00 +33°C° 0 mm 1 mps 666 mmHg 14%
    18:00 +31°C° 0 mm 1 mps 666 mmHg 16%
    19:00 +29°C° 0 mm 1 mps 666 mmHg 18%
    20:00 +27°C° 0 mm 2 mps 666 mmHg 24%
    21:00 +26°C° 0 mm 2 mps 666 mmHg 30%
    22:00 +25°C° 0 mm 3 mps 666 mmHg 37%
    23:00 +24°C° 0 mm 3 mps 666 mmHg 47%
    Show more